Time,TemperatureF,DewpointF,PressureIn,WindDirection,WindDirectionDegrees,WindSpeedMPH,WindSpeedGustMPH,Humidity,HourlyPrecipIn,Conditions,Clouds,dailyrainin,SoftwareType,DateUTC
2013-07-25 00:00:00,63.6,52.0,29.95,North,349,0.0,-999.0,66,-99.99,,,0.00,weatherlink.com 1.10,2013-07-25 05:00:00,
2013-07-25 00:15:00,63.2,52.0,29.95,North,349,0.0,-999.0,66,-99.99,,,0.00,weatherlink.com 1.10,2013-07-25 05:15:00,
2013-07-25 00:30:00,62.9,52.0,29.95,North,349,2.0,-999.0,67,-99.99,,,0.00,weatherlink.com 1.10,2013-07-25 05:30:00,
2013-07-25 00:45:00,62.6,52.0,29.95,North,349,0.0,-999.0,68,-99.99,,,0.00,weatherlink.com 1.10,2013-07-25 05:45:00,
2013-07-25 01:00:00,62.3,52.0,29.96,North,349,0.0,-999.0,68,-99.99,,,0.00,weatherlink.com 1.10,2013-07-25 06:00:00,
2013-07-25 01:15:00,61.7,52.0,29.96,North,349,0.0,-999.0,70,-99.99,,,0.00,weatherlink.com 1.10,2013-07-25 06:15:00,
2013-07-25 01:30:00,61.3,52.0,29.95,North,349,0.0,-999.0,71,-99.99,,,0.00,weatherlink.com 1.10,2013-07-25 06:30:00,
2013-07-25 01:45:00,60.9,52.0,29.95,North,349,0.0,-999.0,72,-99.99,,,0.00,weatherlink.com 1.10,2013-07-25 06:45:00,
2013-07-25 02:00:00,60.5,52.0,29.95,North,349,0.0,-999.0,73,-99.99,,,0.00,weatherlink.com 1.10,2013-07-25 07:00:00,
2013-07-25 02:15:00,59.5,52.0,29.95,North,349,0.0,-999.0,76,-99.99,,,0.00,weatherlink.com 1.10,2013-07-25 07:15:00,
2013-07-25 02:30:00,58.8,52.0,29.95,North,349,0.0,-999.0,77,-99.99,,,0.00,weatherlink.com 1.10,2013-07-25 07:30:00,
2013-07-25 02:45:00,58.2,52.0,29.95,North,349,0.0,-999.0,79,-99.99,,,0.00,weatherlink.com 1.10,2013-07-25 07:45:00,
2013-07-25 03:00:00,57.6,52.0,29.95,North,349,0.0,-999.0,80,-99.99,,,0.00,weatherlink.com 1.10,2013-07-25 08:00:00,
2013-07-25 03:15:00,57.2,51.0,29.95,North,349,0.0,-999.0,81,-99.99,,,0.00,weatherlink.com 1.10,2013-07-25 08:15:00,
2013-07-25 03:30:00,56.9,51.0,29.96,North,349,0.0,-999.0,81,-99.99,,,0.00,weatherlink.com 1.10,2013-07-25 08:30:00,
2013-07-25 03:45:00,56.5,51.0,29.97,North,349,0.0,-999.0,83,-99.99,,,0.00,weatherlink.com 1.10,2013-07-25 08:45:00,
2013-07-25 04:00:00,56.2,52.0,29.97,North,349,0.0,-999.0,85,-99.99,,,0.00,weatherlink.com 1.10,2013-07-25 09:00:00,
2013-07-25 04:15:00,55.8,51.0,29.97,North,349,0.0,-999.0,85,-99.99,,,0.00,weatherlink.com 1.10,2013-07-25 09:15:00,
2013-07-25 04:30:00,55.3,51.0,29.98,North,349,0.0,-999.0,86,-99.99,,,0.00,weatherlink.com 1.10,2013-07-25 09:30:00,
2013-07-25 04:45:00,55.0,51.0,29.98,North,349,0.0,-999.0,87,-99.99,,,0.00,weatherlink.com 1.10,2013-07-25 09:45:00,
2013-07-25 05:00:00,54.7,51.0,29.99,North,349,0.0,-999.0,88,-99.99,,,0.00,weatherlink.com 1.10,2013-07-25 10:00:00,
2013-07-25 05:15:00,54.4,51.0,29.98,North,349,0.0,-999.0,88,-99.99,,,0.00,weatherlink.com 1.10,2013-07-25 10:15:00,
2013-07-25 05:30:00,54.2,51.0,29.99,North,349,0.0,-999.0,89,-99.99,,,0.00,weatherlink.com 1.10,2013-07-25 10:30:00,
2013-07-25 05:45:00,54.0,51.0,29.99,North,349,0.0,-999.0,90,-99.99,,,0.00,weatherlink.com 1.10,2013-07-25 10:45:00,
2013-07-25 06:00:00,53.8,51.0,29.99,North,349,0.0,-999.0,90,-99.99,,,0.00,weatherlink.com 1.10,2013-07-25 11:00:00,
2013-07-25 06:15:00,53.7,51.0,29.99,North,349,0.0,-999.0,91,-99.99,,,0.00,weatherlink.com 1.10,2013-07-25 11:15:00,
2013-07-25 06:30:00,54.0,52.0,29.99,North,349,0.0,-999.0,91,-99.99,,,0.00,weatherlink.com 1.10,2013-07-25 11:30:00,
2013-07-25 06:45:00,54.3,52.0,29.99,North,349,0.0,-999.0,92,-99.99,,,0.00,weatherlink.com 1.10,2013-07-25 11:45:00,
2013-07-25 07:00:00,56.1,54.0,30.00,North,349,0.0,-999.0,93,-99.99,,,0.00,weatherlink.com 1.10,2013-07-25 12:00:00,
2013-07-25 07:15:00,58.4,55.0,30.00,North,349,0.0,-999.0,88,-99.99,,,0.00,weatherlink.com 1.10,2013-07-25 12:15:00,
2013-07-25 07:30:00,60.9,56.0,30.01,North,349,0.0,-999.0,83,-99.99,,,0.00,weatherlink.com 1.10,2013-07-25 12:30:00,
2013-07-25 07:45:00,62.1,57.0,30.01,North,349,0.0,-999.0,82,-99.99,,,0.00,weatherlink.com 1.10,2013-07-25 12:45:00,
2013-07-25 08:00:00,63.4,58.0,30.01,North,349,0.0,-999.0,81,-99.99,,,0.00,weatherlink.com 1.10,2013-07-25 13:00:00,
2013-07-25 08:15:00,64.4,57.0,30.02,North,349,0.0,-999.0,78,-99.99,,,0.00,weatherlink.com 1.10,2013-07-25 13:15:00,
2013-07-25 08:30:00,66.0,56.0,30.01,North,349,0.0,-999.0,71,-99.99,,,0.00,weatherlink.com 1.10,2013-07-25 13:30:00,
2013-07-25 08:45:00,67.7,55.0,30.00,North,349,0.0,-999.0,64,-99.99,,,0.00,weatherlink.com 1.10,2013-07-25 13:45:00,
2013-07-25 09:00:00,68.9,56.0,30.01,North,349,0.0,-999.0,63,-99.99,,,0.00,weatherlink.com 1.10,2013-07-25 14:00:00,
2013-07-25 09:15:00,69.9,55.0,30.01,North,349,3.0,-999.0,59,-99.99,,,0.00,weatherlink.com 1.10,2013-07-25 14:15:00,
2013-07-25 09:30:00,70.4,55.0,30.01,North,349,0.0,-999.0,58,-99.99,,,0.00,weatherlink.com 1.10,2013-07-25 14:30:00,
2013-07-25 09:45:00,71.0,54.0,30.01,North,349,0.0,-999.0,56,-99.99,,,0.00,weatherlink.com 1.10,2013-07-25 14:45:00,
2013-07-25 10:00:00,71.4,55.0,30.01,North,349,0.0,-999.0,56,-99.99,,,0.00,weatherlink.com 1.10,2013-07-25 15:00:00,
2013-07-25 10:15:00,71.7,55.0,30.01,North,349,0.0,-999.0,56,-99.99,,,0.00,weatherlink.com 1.10,2013-07-25 15:15:00,
2013-07-25 10:30:00,72.2,55.0,30.02,North,350,0.0,-999.0,55,-99.99,,,0.00,weatherlink.com 1.10,2013-07-25 15:30:00,
2013-07-25 10:45:00,72.5,56.0,30.02,North,350,1.0,-999.0,57,-99.99,,,0.00,weatherlink.com 1.10,2013-07-25 15:45:00,
2013-07-25 11:00:00,73.0,55.0,30.02,North,350,4.0,-999.0,54,-99.99,,,0.00,weatherlink.com 1.10,2013-07-25 16:00:00,
2013-07-25 11:15:00,73.3,56.0,30.02,North,355,0.0,-999.0,55,-99.99,,,0.00,weatherlink.com 1.10,2013-07-25 16:15:00,
2013-07-25 11:30:00,73.6,56.0,30.02,North,355,0.0,-999.0,54,-99.99,,,0.00,weatherlink.com 1.10,2013-07-25 16:30:00,
2013-07-25 11:45:00,73.9,58.0,30.01,North,355,0.0,-999.0,58,-99.99,,,0.00,weatherlink.com 1.10,2013-07-25 16:45:00,
2013-07-25 12:00:00,74.3,56.0,30.01,North,355,0.0,-999.0,53,-99.99,,,0.00,weatherlink.com 1.10,2013-07-25 17:00:00,
2013-07-25 12:15:00,74.8,56.0,30.01,North,355,0.0,-999.0,52,-99.99,,,0.00,weatherlink.com 1.10,2013-07-25 17:15:00,
2013-07-25 12:30:00,74.8,56.0,30.02,North,355,0.0,-999.0,52,-99.99,,,0.00,weatherlink.com 1.10,2013-07-25 17:30:00,
2013-07-25 12:45:00,75.3,57.0,30.02,North,355,0.0,-999.0,53,-99.99,,,0.00,weatherlink.com 1.10,2013-07-25 17:45:00,
2013-07-25 13:00:00,75.8,57.0,30.01,North,350,0.0,-999.0,53,-99.99,,,0.00,weatherlink.com 1.10,2013-07-25 18:00:00,
2013-07-25 13:15:00,76.4,60.0,30.00,North,350,0.0,-999.0,57,-99.99,,,0.00,weatherlink.com 1.10,2013-07-25 18:15:00,
2013-07-25 13:30:00,76.3,58.0,30.00,North,351,0.0,-999.0,53,-99.99,,,0.00,weatherlink.com 1.10,2013-07-25 18:30:00,
2013-07-25 13:45:00,76.4,57.0,30.00,North,351,0.0,-999.0,52,-99.99,,,0.00,weatherlink.com 1.10,2013-07-25 18:45:00,
2013-07-25 14:00:00,77.4,58.0,30.00,NNW,343,1.0,-999.0,52,-99.99,,,0.00,weatherlink.com 1.10,2013-07-25 19:00:00,
2013-07-25 14:15:00,77.4,59.0,30.00,North,350,0.0,-999.0,54,-99.99,,,0.00,weatherlink.com 1.10,2013-07-25 19:15:00,
2013-07-25 14:30:00,77.5,59.0,30.00,North,350,0.0,-999.0,54,-99.99,,,0.00,weatherlink.com 1.10,2013-07-25 19:30:00,
2013-07-25 14:45:00,77.9,60.0,29.99,North,349,0.0,-999.0,54,-99.99,,,0.00,weatherlink.com 1.10,2013-07-25 19:45:00,
2013-07-25 15:00:00,77.9,58.0,29.99,North,349,0.0,-999.0,51,-99.99,,,0.00,weatherlink.com 1.10,2013-07-25 20:00:00,
2013-07-25 15:15:00,77.2,58.0,29.99,North,349,2.0,-999.0,52,-99.99,,,0.00,weatherlink.com 1.10,2013-07-25 20:15:00,
2013-07-25 15:30:00,77.2,58.0,29.99,North,349,0.0,-999.0,52,-99.99,,,0.00,weatherlink.com 1.10,2013-07-25 20:30:00,
2013-07-25 15:45:00,76.8,58.0,29.98,North,349,0.0,-999.0,53,-99.99,,,0.00,weatherlink.com 1.10,2013-07-25 20:45:00,
2013-07-25 16:15:00,78.2,60.0,29.97,West,261,0.0,-999.0,53,-99.99,,,0.00,weatherlink.com 1.10,2013-07-25 21:15:00,
2013-07-25 16:30:00,79.2,59.0,29.97,West,259,0.0,-999.0,51,-99.99,,,0.00,weatherlink.com 1.10,2013-07-25 21:30:00,
2013-07-25 16:45:00,78.2,60.0,29.96,WSW,250,0.0,-999.0,53,-99.99,,,0.00,weatherlink.com 1.10,2013-07-25 21:45:00,
2013-07-25 17:00:00,78.0,59.0,29.97,WSW,250,1.0,-999.0,53,-99.99,,,0.00,weatherlink.com 1.10,2013-07-25 22:00:00,
2013-07-25 17:15:00,77.2,60.0,29.97,SSW,210,0.0,-999.0,55,-99.99,,,0.00,weatherlink.com 1.10,2013-07-25 22:15:00,
2013-07-25 17:30:00,77.4,60.0,29.96,SSW,209,0.0,-999.0,56,-99.99,,,0.00,weatherlink.com 1.10,2013-07-25 22:30:00,
2013-07-25 17:45:00,77.1,59.0,29.96,South,190,4.0,-999.0,54,-99.99,,,0.00,weatherlink.com 1.10,2013-07-25 22:45:00,
2013-07-25 18:00:00,76.8,60.0,29.97,South,178,0.0,-999.0,57,-99.99,,,0.00,weatherlink.com 1.10,2013-07-25 23:00:00,
2013-07-25 18:15:00,76.4,60.0,29.97,South,178,0.0,-999.0,57,-99.99,,,0.00,weatherlink.com 1.10,2013-07-25 23:15:00,
2013-07-25 18:30:00,76.4,60.0,29.97,South,180,0.0,-999.0,57,-99.99,,,0.00,weatherlink.com 1.10,2013-07-25 23:30:00,
2013-07-25 18:45:00,76.5,60.0,29.97,South,181,0.0,-999.0,57,-99.99,,,0.00,weatherlink.com 1.10,2013-07-25 23:45:00,
2013-07-25 19:00:00,76.2,60.0,29.97,South,181,0.0,-999.0,58,-99.99,,,0.00,weatherlink.com 1.10,2013-07-26 00:00:00,
2013-07-25 19:15:00,75.9,61.0,29.97,South,181,0.0,-999.0,60,-99.99,,,0.00,weatherlink.com 1.10,2013-07-26 00:15:00,
2013-07-25 19:30:00,75.4,61.0,29.96,South,181,0.0,-999.0,61,-99.99,,,0.00,weatherlink.com 1.10,2013-07-26 00:30:00,
2013-07-25 19:45:00,74.8,62.0,29.96,South,181,0.0,-999.0,64,-99.99,,,0.00,weatherlink.com 1.10,2013-07-26 00:45:00,
2013-07-25 20:00:00,73.9,61.0,29.96,South,181,0.0,-999.0,65,-99.99,,,0.00,weatherlink.com 1.10,2013-07-26 01:00:00,
2013-07-25 20:15:00,73.3,62.0,29.96,South,181,0.0,-999.0,67,-99.99,,,0.00,weatherlink.com 1.10,2013-07-26 01:15:00,
2013-07-25 20:30:00,72.4,62.0,29.96,South,181,0.0,-999.0,69,-99.99,,,0.00,weatherlink.com 1.10,2013-07-26 01:30:00,
2013-07-25 20:45:00,71.6,62.0,29.96,South,181,0.0,-999.0,71,-99.99,,,0.00,weatherlink.com 1.10,2013-07-26 01:45:00,
2013-07-25 21:00:00,70.7,62.0,29.97,South,181,0.0,-999.0,74,-99.99,,,0.00,weatherlink.com 1.10,2013-07-26 02:00:00,
2013-07-25 21:15:00,70.0,62.0,29.98,South,181,0.0,-999.0,76,-99.99,,,0.00,weatherlink.com 1.10,2013-07-26 02:15:00,
2013-07-25 21:30:00,69.7,62.0,29.98,South,181,0.0,-999.0,76,-99.99,,,0.00,weatherlink.com 1.10,2013-07-26 02:30:00,
2013-07-25 21:45:00,69.5,62.0,29.98,South,181,0.0,-999.0,76,-99.99,,,0.00,weatherlink.com 1.10,2013-07-26 02:45:00,
2013-07-25 22:00:00,69.1,62.0,29.98,South,181,0.0,-999.0,77,-99.99,,,0.00,weatherlink.com 1.10,2013-07-26 03:00:00,
2013-07-25 22:15:00,68.8,62.0,29.98,South,181,0.0,-999.0,79,-99.99,,,0.00,weatherlink.com 1.10,2013-07-26 03:15:00,
2013-07-25 22:30:00,68.5,62.0,29.98,South,181,0.0,-999.0,79,-99.99,,,0.00,weatherlink.com 1.10,2013-07-26 03:30:00,
2013-07-25 22:45:00,68.3,62.0,29.98,South,181,0.0,-999.0,79,-99.99,,,0.00,weatherlink.com 1.10,2013-07-26 03:45:00,
2013-07-25 23:00:00,68.1,61.0,29.98,South,181,0.0,-999.0,79,-99.99,,,0.00,weatherlink.com 1.10,2013-07-26 04:00:00,
2013-07-25 23:15:00,67.7,61.0,29.97,South,181,0.0,-999.0,80,-99.99,,,0.00,weatherlink.com 1.10,2013-07-26 04:15:00,
2013-07-25 23:30:00,68.0,62.0,29.97,South,181,0.0,-999.0,80,-99.99,,,0.00,weatherlink.com 1.10,2013-07-26 04:30:00,
2013-07-25 23:45:00,68.0,62.0,29.97,South,181,0.0,-999.0,81,-99.99,,,0.00,weatherlink.com 1.10,2013-07-26 04:45:00,